This is the latest recevied weather packets stored in our database for station/object KE5VT. If no packets are shown the sender has not sent any weather packets the latest 10 day(s).
| Time | Temp. | Humidity | Pressure | Rain* | Wind** | Luminosity | Snow |
|---|---|---|---|---|---|---|---|
| 1787690143 | 30.56° C | 47% | 1012.8 hPa | 0 mm | - | 61 W/m² | - |
| 1787689839 | 30° C | 48% | 1012.9 hPa | 0 mm | - | 74 W/m² | - |
| 1787689535 | 30° C | 47% | 1012.8 hPa | 0 mm | - | 98 W/m² | - |
| 1787689230 | 30.56° C | 47% | 1012.8 hPa | 0 mm | - | 72 W/m² | - |
| 1787688925 | 30.56° C | 46% | 1013.1 hPa | 0 mm | - | 52 W/m² | - |
| 1787688621 | 31.11° C | 46% | 1012.9 hPa | 0 mm | - | 52 W/m² | - |
| 1787688320 | 30.56° C | 48% | 1013 hPa | 0 mm | - | 359 W/m² | - |
| 1787688016 | 30.56° C | 48% | 1013.1 hPa | 0 mm | - | 373 W/m² | - |
| 1787687712 | 30° C | 47% | 1013 hPa | 0 mm | - | 101 W/m² | - |
| 1787687406 | 30.56° C | 47% | 1012.9 hPa | 0 mm | - | 62 W/m² | - |
| 1787687102 | 30.56° C | 47% | 1013.2 hPa | 0 mm | - | 99 W/m² | - |
| 1787686798 | 29.44° C | 47% | 1012.9 hPa | 0 mm | - | 259 W/m² | - |
| 1787686493 | 30° C | 48% | 1013.2 hPa | 0 mm | - | 520 W/m² | - |
| 1787686189 | 29.44° C | 49% | 1013.3 hPa | 0 mm | - | 110 W/m² | - |
| 1787685884 | 30° C | 46% | 1013.4 hPa | 0 mm | - | 224 W/m² | - |
| 1787685584 | 30.56° C | 46% | 1013.5 hPa | 0 mm | - | 146 W/m² | - |
| 1787685279 | 30.56° C | 47% | 1013.4 hPa | 0 mm | - | 149 W/m² | - |
| 1787684978 | 30.56° C | 46% | 1013.6 hPa | 0 mm | - | 420 W/m² | - |
| 1787684675 | 29.44° C | 47% | 1013.7 hPa | 0 mm | - | 464 W/m² | - |
| 1787684373 | 30° C | 47% | 1013.7 hPa | 0 mm | - | 68 W/m² | - |
| 1787684070 | 30.56° C | 47% | 1013.6 hPa | 0 mm | - | 89 W/m² | - |
| 1787683768 | 30° C | 48% | 1013.7 hPa | 0 mm | - | 74 W/m² | - |
| 1787683464 | 30.56° C | 47% | 1013.9 hPa | 0 mm | - | 226 W/m² | - |
| 1787683159 | 30.56° C | 45% | 1013.9 hPa | 0 mm | - | 96 W/m² | - |
| 1787682856 | 30.56° C | 46% | 1014.1 hPa | 0 mm | - | 556 W/m² | - |
* Rain latest hour (hover to see other rain measurements)
** Current wind speed in m/s (hover to see current wind gust speed)